User: anonymous   Login
Location: Unspecified
(0.0000°N, 0.0000°E)
Time: 07:24:57
(UTC+00:00)
Language:

COSMOS-2414 - Orbit

View from above orbital plane
View from above orbital plane
View from above satellite
View from above satellite

Ground track
Ground track

The orbit is defined by the following mean orbital elements,

1 28521U          26106.89886181 +.00000000 +00000-0 +18898-4 0 00003
2 28521  82.9462  90.0050 0040963 142.4450 217.9587 13.87919603    03
Epoch (UTC): 16 April 2026 21:34:21
Eccentricity: 0.0040963
inclination: 82.9462°
perigee height: 906 km
apogee height: 966 km
right ascension of ascending node: 90.0050°
argument of perigee: 142.4450°
revolutions per day: 13.87919603
mean anomaly at epoch: 217.9587°

The dashed part of the orbit path shows where the satellite is in the earth's shadow,  

DLR